Location: Kaarina
(60.4167°N, 22.4167°E)
Time: 17:55:33
(UTC+03:00)

Cosmos 1743 - Pass Details

Date: 24 August 2019
Orbit: 512 x 527 km, 82.5° (Epoch: 22 September)

Event Time Altitude Azimuth Distance (km) Brightness Sun altitude
Exits shadow 22:49:26 16° 161° (SSE) 1,405 4.3 -11.6°
Maximum altitude 22:52:10 43° 95° (E) 740 3.1 -11.8°
Drops below altitude 10° 22:55:50 10° 24° (NNE) 1,755 5.7 -12.1°
Sets 22:58:02 0° 18° (NNE) 2,649 6.8 -12.3°
